Tracking 35036 objects as of 15-Aug-2026
HD Live streaming from Space Station
objects crossing your sky now

STARLINK-38062


10-day predictions
STARLINK-38062 is classified as:


NORAD ID: 100117
Int'l Code: 2026-166S
Launch date: July 21, 2026
Source: United States (US)
Launch site: AIR FORCE WESTERN TEST RANGE (AFWTR)
Your satellite tracking list
Your tracking list is empty




NASA's NSSDC Master Catalog

Two Line Element Set (TLE):
1 A0117U 26166S   26227.52222631  .00042998  00000-0  28752-3 0  9991
2 A0117  97.2842 244.1570 0000585 101.1624 258.9707 15.75205021  3941
Source of the keplerian elements: AFSPC